Flight Track Log - Related Links

Times and Time Zones

All times are in EDT time to prevent confusion due to time zone crossing. See the UAL395 flight status page for this flight to view local times or setup timezone preferences in your user account.

Time Position Orientation Groundspeed Altitude Reporting Facility
EDT Latitude Longitude Course Direction KTS MPH feet Rate Location/Type
06:35AM 29.5444 -98.4492 41° Northeast 146 168 1,700  Level Houston Center
06:35AM 29.5650 -98.4228 48° Northeast 169 194 3,100 2,242 Climbing Houston Center
06:36AM 29.5850 -98.3739 65° Northeast 209 241 5,100 2,509 Climbing Houston Center
06:37AM 29.5838 -98.2405 65° Northeast  Level FlightAware Approximate
06:37AM 29.5947 -98.2886 83° East 278 320 7,700  Level Houston Center
06:38AM 29.6068 -98.1663 77° East  Level FlightAware Approximate
06:38AM 29.6069 -98.1944 81° East 300 345 11,100  Level Houston Center
06:39AM 29.6222 -98.0891 77° East  Level FlightAware Approximate
06:39AM 29.6197 -98.0783 83° East 374 430 12,800  Level Houston Center
06:40AM 29.6478 -98.0189 41° Northeast  Level FlightAware Approximate
06:40AM 29.6158 -97.9492 92° East 406 467 15,500  Level Houston Center
06:41AM 29.6125 -97.8147 92° East 422 486 17,900 2,300 Climbing Houston Center
06:42AM 29.6064 -97.6728 93° East 441 507 20,100 2,132 Climbing Houston Center
06:43AM 29.6014 -97.5283 92° East 450 518 22,200 1,438 Climbing Houston Center
06:44AM 29.5964 -97.3836 92° East 453 521 23,000 350 Climbing Houston Center
06:45AM 29.5906 -97.2425 93° East 445 512 22,900  Descending Houston Center
06:46AM 29.5850 -97.1003 93° East 444 511 23,000 50 Climbing Houston Center
06:47AM 29.5797 -96.9569 92° East 445 512 23,000 -500 Level Houston Center
06:48AM 29.5744 -96.8150 92° East 440 506 22,000 -1,339 Descending Houston Center
06:49AM 29.5689 -96.7025 93° East 437 503 20,300 -1,978 Descending Houston Center
06:50AM 29.5639 -96.6108 94° East 433 498 19,000 -2,000 Descending Houston Center
06:50AM 29.5625 -96.5647 92° East 431 496 18,300 -1,837 Descending Houston Center
06:50AM 29.5594 -96.5058 93° East 418 481 17,500 -1,967 Descending Houston Center
06:51AM 29.5567 -96.4339 93° East 414 476 16,300 -2,164 Descending Houston Center
06:51AM 29.5528 -96.3747 94° East 402 463 15,300 -2,200 Descending Houston Center
06:52AM 29.5508 -96.3078 92° East 399 459 14,100 -2,273 Descending Houston Center
06:53AM 29.5469 -96.2314 93° East 388 447 12,800 -2,100 Descending Houston Center
06:53AM 29.5469 -96.1614 90° East 385 443 12,000 -787 Descending Houston Center
06:54AM 29.5736 -96.1250 50° Northeast 355 409 12,000  Level Houston Center
06:54AM 29.6147 -96.0800 44° Northeast 361 415 12,000 -379 Level Houston Center
06:55AM 29.6858 -96.0036 43° Northeast 353 406 11,400 -545 Descending Houston Center
06:56AM 29.7319 -95.9417 49° Northeast 324 373 10,900 -1,289 Descending Houston Center
06:57AM 29.7992 -95.8597 47° Northeast 296 341 8,800 -2,000 Descending Houston Center
06:57AM 29.8133 -95.8431 46° Northeast 297 342 8,400 -1,200 Descending Houston Center
06:58AM 29.8553 -95.7881 49° Northeast 299 344 7,600 -1,100 Descending Houston Center
06:58AM 29.8681 -95.7717 48° Northeast 293 337 7,300 -1,279 Descending Houston Center
06:59AM 29.9047 -95.7206 50° Northeast 283 326 6,300 -1,180 Descending Houston Center
06:59AM 29.9167 -95.7058 47° Northeast 268 308 6,100 -1,000 Descending Houston Center
07:00AM 29.9542 -95.6622 45° Northeast 259 298 5,300 -896 Descending Houston Center
07:01AM 29.9697 -95.6417 49° Northeast 232 267 5,100 -984 Descending Houston Center
07:01AM 29.9931 -95.6047 54° Northeast 232 267 4,300 -1,180 Descending Houston Center
07:02AM 29.9914 -95.5789 94° East 214 246 3,900 -1,091 Descending Houston Center

Login

Don't have an account? Register now (free) for customized features, flight alerts, and more!